2023/05/08 00:00:00, 0.1,10.0
2023/05/08 00:10:00, 0.1, 9.9
2023/05/08 00:20:00, 0.1,10.0
2023/05/08 00:30:00, 0.1,10.0
2023/05/08 00:40:00, 0.1,10.0
2023/05/08 00:50:00, 0.2, 9.9
2023/05/08 01:00:00, 0.2, 9.9
2023/05/08 01:10:00, 0.1, 9.8
2023/05/08 01:20:00, 0.1, 9.6
2023/05/08 01:30:00, 0.1, 9.6
2023/05/08 01:40:00, 0.1, 9.6
2023/05/08 01:50:00, 0.1, 9.7
2023/05/08 02:00:00, 0.2, 9.6
2023/05/08 02:10:00, 0.2, 9.6
2023/05/08 02:20:00, 0.1, 9.6
2023/05/08 02:30:00, 0.2, 9.5
2023/05/08 02:40:00, 0.1, 9.7
2023/05/08 02:50:00, 0.2, 9.6
2023/05/08 03:00:00, 0.1, 9.7
2023/05/08 03:10:00, 0.1, 9.6
2023/05/08 03:20:00, 0.1, 9.5
2023/05/08 03:30:00, 0.1, 9.4
2023/05/08 03:40:00, 0.1, 9.6
2023/05/08 03:50:00, 0.1, 9.6
2023/05/08 04:00:00, 0.1, 9.8
2023/05/08 04:10:00, 0.1, 9.6
2023/05/08 04:20:00, 0.1, 9.6
2023/05/08 04:30:00, 0.2, 9.7
2023/05/08 04:40:00, 0.3, 9.7
2023/05/08 04:50:00, 0.2, 9.7
2023/05/08 05:00:00, 0.2, 9.6
2023/05/08 05:10:00, 0.4, 9.7
2023/05/08 05:20:00, 0.3, 9.9
2023/05/08 05:30:00, 0.5, 9.9
2023/05/08 05:40:00, 0.7, 9.9
2023/05/08 05:50:00, 0.6, 9.7
2023/05/08 06:00:00, 0.3, 9.9
2023/05/08 06:10:00, 0.1, 9.9
2023/05/08 06:20:00, 0.1,10.1
2023/05/08 06:30:00, 0.1,10.3
2023/05/08 06:40:00, 0.1,10.1
2023/05/08 06:50:00, 0.1,10.2
2023/05/08 07:00:00, 0.2,10.5
2023/05/08 07:10:00, 0.2,10.6
2023/05/08 07:20:00, 0.4,10.6
2023/05/08 07:30:00, 0.7,10.6
2023/05/08 07:40:00, 1.7,10.9
2023/05/08 07:50:00, 1.2,10.9
2023/05/08 08:00:00, 2.1,10.8
2023/05/08 08:10:00, 1.0,10.9
2023/05/08 08:20:00, 1.4,10.9
2023/05/08 08:30:00, 1.2,10.9
2023/05/08 08:40:00, 1.5,10.9
2023/05/08 08:50:00, 0.5,10.8
2023/05/08 09:00:00, 0.1,11.3
2023/05/08 09:10:00, 0.1,11.1
2023/05/08 09:20:00, 0.0,11.2
2023/05/08 09:30:00, 0.0,11.4
2023/05/08 09:40:00, 0.0,11.8
2023/05/08 09:50:00, 0.1,12.0
2023/05/08 10:00:00, 0.2,11.9
2023/05/08 10:10:00, 0.2,11.9
2023/05/08 10:20:00, 0.3,11.5
2023/05/08 10:30:00, 0.2,11.3
2023/05/08 10:40:00, 0.5,11.9
2023/05/08 10:50:00, 0.7,13.1
2023/05/08 11:00:00, 0.8,13.1
2023/05/08 11:10:00, 1.2,13.2
2023/05/08 11:20:00, 1.7,13.6
2023/05/08 11:30:00, 2.3,13.5
2023/05/08 11:40:00, 1.4,15.5
2023/05/08 11:50:00, 0.8,13.7
2023/05/08 12:00:00, 0.9,14.1
2023/05/08 12:10:00, 0.6,14.7
2023/05/08 12:20:00, 0.4,15.1
2023/05/08 12:30:00, 0.6,14.5
2023/05/08 12:40:00, 0.7,16.3
2023/05/08 12:50:00, 0.5,15.8
2023/05/08 13:00:00, 0.4,16.4
2023/05/08 13:10:00, 0.4,15.9
2023/05/08 13:20:00, 1.4,16.7
2023/05/08 13:30:00, 0.9,16.2
2023/05/08 13:40:00, 1.4,16.9
2023/05/08 13:50:00, 1.6,17.6
2023/05/08 14:00:00, 1.3,16.8
2023/05/08 14:10:00, 1.8,17.0
2023/05/08 14:20:00, 1.9,17.0
2023/05/08 14:30:00, 1.7,16.5
2023/05/08 14:40:00, 3.0,17.1
2023/05/08 14:50:00, 3.0,16.4
2023/05/08 15:00:00, 7.1,16.9
2023/05/08 15:10:00, 9.7,16.4
2023/05/08 15:20:00,13.4,16.8
2023/05/08 15:30:00,12.2,16.2
2023/05/08 15:40:00,14.2,16.6
2023/05/08 15:50:00,14.9,16.3
2023/05/08 16:00:00,13.9,16.6
2023/05/08 16:10:00,14.8,16.3
2023/05/08 16:20:00,15.2,16.7
2023/05/08 16:30:00,15.1,16.3
2023/05/08 16:40:00,14.7,16.1
2023/05/08 16:50:00,14.9,16.2
2023/05/08 17:00:00,14.7,16.7
2023/05/08 17:10:00,14.5,15.9
2023/05/08 17:20:00,14.8,15.6
2023/05/08 17:30:00,15.4,15.5
2023/05/08 17:40:00,14.9,14.0
2023/05/08 17:50:00,13.4,13.3
2023/05/08 18:00:00,14.0,12.4
2023/05/08 18:10:00,14.6,12.1
2023/05/08 18:20:00,15.0,11.5
2023/05/08 18:30:00,15.5,11.1
2023/05/08 18:40:00,15.8,10.9
2023/05/08 18:50:00,15.8,10.3
2023/05/08 19:00:00,15.9,10.2
2023/05/08 19:10:00,16.0, 9.8
2023/05/08 19:20:00,16.1, 9.5
2023/05/08 19:30:00,16.3, 9.3
2023/05/08 19:40:00,16.3, 9.0
2023/05/08 19:50:00,16.4, 8.8
2023/05/08 20:00:00,16.3, 8.6
2023/05/08 20:10:00,16.1, 8.4
2023/05/08 20:20:00,16.0, 8.5
2023/05/08 20:30:00,16.2, 8.1
2023/05/08 20:40:00,16.3, 7.9
2023/05/08 20:50:00,16.4, 7.8
2023/05/08 21:00:00,16.4, 7.9
2023/05/08 21:10:00,16.5, 7.6
2023/05/08 21:20:00,16.4, 7.4
2023/05/08 21:30:00,16.6, 7.5
2023/05/08 21:40:00,16.6, 7.3
2023/05/08 21:50:00,16.5, 7.2
2023/05/08 22:00:00,16.7, 7.2
2023/05/08 22:10:00,16.5, 7.3
2023/05/08 22:20:00,16.5, 6.9
2023/05/08 22:30:00,16.6, 7.1
2023/05/08 22:40:00,16.8, 6.7
2023/05/08 22:50:00,17.0, 6.9
2023/05/08 23:00:00,16.5, 6.9
2023/05/08 23:10:00,16.7, 6.9
2023/05/08 23:20:00,16.5, 6.8
2023/05/08 23:30:00,16.8, 6.8
2023/05/08 23:40:00,16.8, 6.7
2023/05/08 23:50:00,16.5, 6.9
